Tracking 22458 objects as of 2-Mar-2021
HD Live streaming from Space Station
objects crossing your sky now

COSMOS 2494 (SKRL 756)

Track COSMOS 2494 (SKRL 756) now!
10-day predictions
COSMOS 2494 (SKRL 756) is classified as:


NORAD ID: 39491
Int'l Code: 2013-078B
Perigee: 589.7 km
Apogee: 619.6 km
Inclination: 82.4 °
Period: 96.6 minutes
Semi major axis: 6975 km
RCS: Unknown
Launch date: December 28, 2013
Source: Commonwealth of Independent States (former USSR) (CIS)
Launch site: PLESETSK MISSILE AND SPACE COMPLEX (PKMTR)
aabbcc
Your satellite tracking list
Your tracking list is empty




NASA's NSSDC Master Catalog

Two Line Element Set (TLE):
1 39491U 13078B   21061.63752460  .00000336  00000-0  32075-4 0  9991
2 39491  82.4201 320.8087 0021417 197.9573 162.0891 14.90131883390062
Source of the keplerian elements: AFSPC